Content
SEND FEEDBACK

Daily
Averages
Monthly
Summary
United States of America

TELLURIDE, COLORADO


Home > North America > United States > Colorado
Elevation: 9813 feet     Latitude: 37 57N     Longitude: 107 49W

WEATHER
 
SELECT A DAY
Number of Records: 299,189;   Date Range: 1/1/95 - 7/7/14
 
SHARE

PRINT THIS DATA

[ ← Previous Day ]
WEATHER ALMANAC - MARCH 28, 2013
[ Next Day → ]
[ °C ]   °F
Weather ElementAverageHighLow
Temperature41.7 °F50 °F (1:55 pm)33.8 °F (12:35 am)
Dewpoint14.6 °F21.2 °F (9:15 am)8.6 °F (12:55 pm)
Humidity34.7 %52 % (7:55 am)20 % (12:55 pm)
Barometer30.20 in30.27 in (11:55 pm)30.18 in (12:35 am)
Wind Speed4.6 mph12.7 mph (2:35 pm)
Wind Gust23 mph (2:55 pm)
Weather ElementAverage
Visibility10 mi
Wind DirectionSSE (142 °)

Weather ElementTotal
Precipitation---
Heating Degree Days23.1 (Base 65)
Averaged from 71 records on March 28, 2013
WEATHER CONDITIONS BREAKOUT
WIND DIRECTION BREAKOUT
WEATHER BY HOUR - MARCH 28, 2013
[ °C ]   °F
Local TimeTemperatureDewpointHumidityBarometerVisibilityWind DirectionWind SpeedGust SpeedPrecipitationEventsConditions
12:35 AM33.8 °F14.0 °F44 %30.18 in10.0 miEast (100°)5.8 mphClear
12:55 AM33.8 °F14.0 °F44 %30.18 in10.0 miSE (140°)6.9 mphClear
1:15 AM33.8 °F12.2 °F41 %30.18 in10.0 miESE (120°)6.9 mphClear
1:35 AM33.8 °F12.2 °F41 %30.18 in10.0 miSE (130°)4.6 mphClear
1:55 AM35.6 °F12.2 °F38 %30.18 in10.0 miSE (130°)4.6 mphClear
2:15 AM33.8 °F14.0 °F44 %30.18 in10.0 miSE (130°)4.6 mphScattered Clouds
2:35 AM33.8 °F12.2 °F41 %30.18 in10.0 miEast (100°)3.5 mphMostly Cloudy
2:55 AM35.6 °F12.2 °F38 %30.18 in10.0 miESE (120°)3.5 mphMostly Cloudy
3:15 AM33.8 °F14.0 °F44 %30.18 in10.0 miSSE (160°)4.6 mphMostly Cloudy
3:35 AM33.8 °F14.0 °F44 %30.18 in10.0 miESE (120°)4.6 mphOvercast
3:55 AM33.8 °F14.0 °F44 %30.18 in10.0 miCalmOvercast
4:15 AM35.6 °F14.0 °F41 %30.18 in10.0 miCalmOvercast
4:35 AM35.6 °F12.2 °F38 %30.18 in10.0 miESE (110°)3.5 mphOvercast
4:55 AM35.6 °F14.0 °F41 %30.18 in10.0 miCalmOvercast
5:15 AM37.4 °F12.2 °F36 %30.18 in10.0 miCalmOvercast
5:35 AM37.4 °F14.0 °F38 %30.18 in10.0 miCalmOvercast
5:55 AM37.4 °F14.0 °F38 %30.18 in10.0 miCalmOvercast
6:15 AM35.6 °F15.8 °F44 %30.19 in10.0 miSW (220°)9.2 mphOvercast
6:35 AM37.4 °F15.8 °F41 %30.19 in10.0 miCalmOvercast
6:55 AM35.6 °F17.6 °F48 %30.20 in10.0 miCalmOvercast
7:15 AM35.6 °F17.6 °F48 %30.20 in10.0 miSE (130°)8.1 mphOvercast
7:35 AM35.6 °F17.6 °F48 %30.20 in10.0 miESE (120°)5.8 mphMostly Cloudy
7:55 AM35.6 °F19.4 °F52 %30.20 in10.0 miESE (110°)3.5 mphScattered Clouds
8:15 AM35.6 °F19.4 °F52 %30.20 in10.0 miCalmScattered Clouds
8:35 AM37.4 °F19.4 °F48 %30.20 in10.0 miEast (100°)4.6 mphClear
8:55 AM39.2 °F19.4 °F45 %30.20 in10.0 miEast (90°)4.6 mphClear
9:15 AM41.0 °F21.2 °F45 %30.20 in10.0 miCalmScattered Clouds
9:35 AM41.0 °F21.2 °F45 %30.21 in10.0 miCalmClear
9:55 AM42.8 °F19.4 °F39 %30.21 in10.0 miCalmClear
10:15 AM42.8 °F19.4 °F39 %30.21 in10.0 miCalmClear
10:35 AM44.6 °F19.4 °F37 %30.21 in10.0 miCalmClear
10:55 AM46.4 °F17.6 °F32 %30.22 in10.0 miWSW (250°)4.6 mphClear
11:15 AM44.6 °F15.8 °F31 %30.22 in10.0 miWest (270°)5.8 mphClear
11:35 AM46.4 °F14.0 °F27 %30.21 in10.0 miWest (280°)8.1 mphClear
11:55 AM46.4 °F14.0 °F27 %30.21 in10.0 miWSW (250°)6.9 mphClear
12:15 PM46.4 °F14.0 °F27 %30.21 in10.0 miWest (280°)8.1 mphClear
12:35 PM46.4 °F12.2 °F25 %30.20 in10.0 miSSW (200°)6.9 mphClear
12:55 PM48.2 °F8.6 °F20 %30.20 in10.0 miWest (270°)8.1 mphClear
1:15 PM48.2 °F10.4 °F22 %30.20 in10.0 miWest (260°)6.9 mphClear
1:35 PM48.2 °F10.4 °F22 %30.19 in10.0 miWest (270°)8.1 mph17.3 mphClear
1:55 PM50.0 °F10.4 °F20 %30.19 in10.0 miWSW (250°)5.8 mph16.1 mphClear
2:15 PM48.2 °F10.4 °F22 %30.19 in10.0 miWest (260°)10.4 mph17.3 mphClear
2:35 PM48.2 °F12.2 °F24 %30.19 in10.0 miWest (270°)12.7 mph19.6 mphClear
2:55 PM48.2 °F12.2 °F24 %30.19 in10.0 miWNW (300°)6.9 mph23.0 mphClear
3:15 PM50.0 °F12.2 °F22 %30.19 in10.0 miWNW (300°)6.9 mph19.6 mphClear
3:35 PM50.0 °F12.2 °F22 %30.18 in10.0 miWest (280°)5.8 mph21.9 mphClear
3:55 PM50.0 °F12.2 °F22 %30.18 in10.0 miWSW (250°)9.2 mph17.3 mphClear
4:15 PM48.2 °F12.2 °F24 %30.18 in10.0 miWest (280°)9.2 mph16.1 mphClear
4:35 PM50.0 °F12.2 °F22 %30.18 in10.0 miWest (270°)9.2 mphClear
4:55 PM50.0 °F12.2 °F22 %30.18 in10.0 miWest (260°)5.8 mph16.1 mphClear
5:15 PM48.2 °F12.2 °F24 %30.18 in10.0 miWNW (290°)8.1 mph18.4 mphClear
5:35 PM46.4 °F12.2 °F25 %30.19 in10.0 miWest (280°)8.1 mph17.3 mphClear
5:55 PM48.2 °F12.2 °F24 %30.19 in10.0 miWSW (250°)9.2 mphClear
6:15 PM46.4 °F14.0 °F27 %30.20 in10.0 miWest (270°)11.5 mph16.1 mphScattered Clouds
6:35 PM46.4 °F14.0 °F27 %30.20 in10.0 miWest (270°)10.4 mph16.1 mphClear
6:55 PM44.6 °F14.0 °F29 %30.21 in10.0 miWest (260°)10.4 mphClear
7:15 PM44.6 °F14.0 °F29 %30.21 in10.0 miWest (260°)9.2 mphClear
7:35 PM44.6 °F15.8 °F31 %30.22 in10.0 miWest (270°)4.6 mphMostly Cloudy
7:55 PM44.6 °F17.6 °F34 %30.22 in10.0 miWest (270°)4.6 mphScattered Clouds
8:15 PM44.6 °F15.8 °F31 %30.23 in10.0 miWest (280°)4.6 mphOvercast
8:35 PM42.8 °F15.8 °F34 %30.23 in10.0 miCalmOvercast
8:55 PM42.8 °F14.0 °F31 %30.23 in10.0 miCalmOvercast
9:15 PM42.8 °F14.0 °F31 %30.23 in10.0 miEast (100°)6.9 mphScattered Clouds
9:35 PM42.8 °F14.0 °F31 %30.24 in10.0 miCalmScattered Clouds
9:55 PM41.0 °F17.6 °F39 %30.25 in10.0 miCalmClear
10:15 PM41.0 °F14.0 °F33 %30.25 in10.0 miCalmClear
10:35 PM41.0 °F14.0 °F33 %30.26 in10.0 miCalmClear
10:55 PM41.0 °F15.8 °F36 %30.26 in10.0 miCalmClear
11:15 PM39.2 °F17.6 °F42 %30.26 in10.0 miCalmClear
11:35 PM39.2 °F17.6 °F42 %30.26 in10.0 miEast (100°)5.8 mphScattered Clouds
11:55 PM37.4 °F17.6 °F45 %30.27 in10.0 miCalmScattered Clouds
Hourly data recorded from KTEX, located miles away from Telluride, Colorado







STORIES FROM OUR PARTNERS